• In United Kingdom
  • List of Countries
  • For 7 days
  • Water Temperature
  • Satellite Maps
  • Weather Map
  • Weather Widgets
  • user-avatar
    Login

    Hourly Weather Konstantyna

    Today, 25 February, Sunday

    Time Temperature Precipitation Wind Pressure Humidity
    00:00 +6°C° 0 mm 1 mps 702 mmHg 92%
    01:00 +6°C° 0.1 mm 1 mps 702 mmHg 92%
    02:00 +6°C° 0.1 mm 1 mps 702 mmHg 92%
    03:00 +5°C° 0.1 mm 1 mps 702 mmHg 93%
    04:00 +5°C° 0 mm 1 mps 702 mmHg 93%
    05:00 +4°C° 0 mm 1 mps 702 mmHg 93%
    06:00 +4°C° 0 mm 1 mps 702 mmHg 93%
    07:00 +4°C° 0 mm 2 mps 703 mmHg 85%
    08:00 +6°C° 0 mm 2 mps 704 mmHg 78%
    09:00 +7°C° 0 mm 2 mps 704 mmHg 71%
    10:00 +8°C° 0 mm 3 mps 704 mmHg 66%
    11:00 +8°C° 0 mm 4 mps 704 mmHg 61%
    12:00 +9°C° 0 mm 5 mps 705 mmHg 56%
    13:00 +9°C° 0 mm 5 mps 704 mmHg 54%
    14:00 +9°C° 0 mm 5 mps 704 mmHg 52%
    15:00 +9°C° 0 mm 5 mps 704 mmHg 50%
    16:00 +8°C° 0 mm 4 mps 704 mmHg 56%
    17:00 +7°C° 0 mm 3 mps 704 mmHg 61%
    18:00 +6°C° 0 mm 2 mps 704 mmHg 66%
    19:00 +5°C° 0 mm 2 mps 704 mmHg 68%
    20:00 +5°C° 0 mm 2 mps 705 mmHg 69%
    21:00 +4°C° 0 mm 2 mps 705 mmHg 71%
    22:00 +4°C° 0 mm 2 mps 705 mmHg 72%
    23:00 +4°C° 0 mm 2 mps 705 mmHg 73%

    Tomorrow, 26 February, Monday

    Time Temperature Precipitation Wind Pressure Humidity
    00:00 +4°C° 0 mm 2 mps 705 mmHg 74%
    01:00 +4°C° 0 mm 2 mps 705 mmHg 75%
    02:00 +3°C° 0 mm 2 mps 704 mmHg 76%
    03:00 +3°C° 0 mm 2 mps 704 mmHg 77%
    04:00 +3°C° 0 mm 2 mps 704 mmHg 78%
    05:00 +3°C° 0 mm 2 mps 704 mmHg 78%
    06:00 +3°C° 0 mm 2 mps 704 mmHg 78%
    07:00 +5°C° 0 mm 2 mps 704 mmHg 67%
    08:00 +7°C° 0 mm 2 mps 704 mmHg 57%
    09:00 +9°C° 0 mm 2 mps 705 mmHg 47%
    10:00 +12°C° 0 mm 2 mps 705 mmHg 42%
    11:00 +13°C° 0 mm 2 mps 704 mmHg 37%
    12:00 +13°C° 0 mm 3 mps 704 mmHg 32%
    13:00 +14°C° 0 mm 3 mps 704 mmHg 32%
    14:00 +14°C° 0 mm 3 mps 703 mmHg 33%
    15:00 +14°C° 0 mm 3 mps 703 mmHg 34%
    16:00 +12°C° 0 mm 3 mps 702 mmHg 42%
    17:00 +10°C° 0 mm 2 mps 702 mmHg 51%
    18:00 +8°C° 0 mm 2 mps 701 mmHg 59%
    19:00 +7°C° 0 mm 2 mps 701 mmHg 61%
    20:00 +7°C° 0 mm 2 mps 701 mmHg 62%
    21:00 +7°C° 0 mm 1 mps 701 mmHg 64%
    22:00 +7°C° 0 mm 1 mps 700 mmHg 63%
    23:00 +7°C° 0 mm 1 mps 700 mmHg 63%

    Day after tomorrow, 27 February, Tuesday

    Time Temperature Precipitation Wind Pressure Humidity
    00:00 +7°C° 0 mm 1 mps 699 mmHg 62%
    01:00 +7°C° 0 mm 1 mps 699 mmHg 61%
    02:00 +7°C° 0 mm 1 mps 699 mmHg 60%
    03:00 +7°C° 0 mm 1 mps 698 mmHg 59%
    04:00 +7°C° 0 mm 1 mps 698 mmHg 60%
    05:00 +7°C° 0 mm 1 mps 698 mmHg 61%
    06:00 +6°C° 0 mm 1 mps 698 mmHg 62%
    07:00 +8°C° 0 mm 1 mps 699 mmHg 58%
    08:00 +10°C° 0 mm 1 mps 699 mmHg 55%
    09:00 +12°C° 0 mm 1 mps 700 mmHg 51%
    10:00 +12°C° 0 mm 2 mps 700 mmHg 49%
    11:00 +13°C° 0 mm 2 mps 701 mmHg 46%
    12:00 +13°C° 0 mm 3 mps 701 mmHg 44%
    13:00 +13°C° 0 mm 3 mps 701 mmHg 46%
    14:00 +13°C° 0 mm 3 mps 701 mmHg 48%
    15:00 +13°C° 0 mm 4 mps 701 mmHg 49%
    16:00 +12°C° 0 mm 3 mps 701 mmHg 57%
    17:00 +10°C° 0 mm 2 mps 702 mmHg 66%
    18:00 +9°C° 0 mm 2 mps 702 mmHg 74%
    19:00 +9°C° 0 mm 1 mps 703 mmHg 78%
    20:00 +8°C° 0 mm 1 mps 703 mmHg 82%
    21:00 +8°C° 0 mm 1 mps 703 mmHg 86%
    22:00 +8°C° 0 mm 1 mps 704 mmHg 86%
    23:00 +7°C° 0 mm 1 mps 704 mmHg 86%

    28 February, Wednesday

    Time Temperature Precipitation Wind Pressure Humidity
    00:00 +7°C° 0 mm 1 mps 704 mmHg 86%
    01:00 +7°C° 0 mm 1 mps 704 mmHg 86%
    02:00 +6°C° 0 mm 2 mps 704 mmHg 85%
    03:00 +6°C° 0 mm 2 mps 703 mmHg 85%
    04:00 +6°C° 0 mm 2 mps 704 mmHg 86%
    05:00 +6°C° 0 mm 2 mps 704 mmHg 87%
    06:00 +6°C° 0 mm 2 mps 704 mmHg 88%
    07:00 +8°C° 0 mm 2 mps 705 mmHg 79%
    08:00 +12°C° 0 mm 2 mps 705 mmHg 71%
    09:00 +13°C° 0 mm 3 mps 706 mmHg 63%
    10:00 +15°C° 0 mm 4 mps 706 mmHg 55%
    11:00 +17°C° 0 mm 5 mps 706 mmHg 48%
    12:00 +20°C° 0 mm 7 mps 705 mmHg 41%
    13:00 +20°C° 0 mm 7 mps 705 mmHg 41%
    14:00 +20°C° 0 mm 7 mps 704 mmHg 42%
    15:00 +20°C° 0 mm 7 mps 703 mmHg 42%
    16:00 +17°C° 0 mm 6 mps 703 mmHg 45%
    17:00 +15°C° 0 mm 5 mps 702 mmHg 48%
    18:00 +13°C° 0 mm 4 mps 702 mmHg 51%
    19:00 +13°C° 0 mm 5 mps 702 mmHg 51%
    20:00 +13°C° 0 mm 5 mps 702 mmHg 51%
    21:00 +12°C° 0 mm 5 mps 702 mmHg 51%
    22:00 +13°C° 0 mm 5 mps 702 mmHg 50%
    23:00 +13°C° 0 mm 5 mps 702 mmHg 49%

    1 March, Thursday

    Time Temperature Precipitation Wind Pressure Humidity
    00:00 +13°C° 0 mm 5 mps 701 mmHg 48%
    01:00 +12°C° 0 mm 4 mps 701 mmHg 49%
    02:00 +11°C° 0 mm 4 mps 701 mmHg 51%
    03:00 +11°C° 0 mm 3 mps 701 mmHg 53%
    04:00 +11°C° 0 mm 3 mps 701 mmHg 52%
    05:00 +11°C° 0 mm 3 mps 700 mmHg 51%
    06:00 +11°C° 0 mm 3 mps 700 mmHg 51%
    07:00 +12°C° 0 mm 3 mps 701 mmHg 50%
    08:00 +14°C° 0 mm 4 mps 701 mmHg 49%
    09:00 +15°C° 0 mm 4 mps 701 mmHg 49%
    10:00 +17°C° 0 mm 6 mps 701 mmHg 44%
    11:00 +20°C° 0 mm 7 mps 701 mmHg 39%
    12:00 +22°C° 0 mm 9 mps 700 mmHg 35%
    13:00 +22°C° 0 mm 8 mps 700 mmHg 37%
    14:00 +21°C° 0 mm 7 mps 700 mmHg 38%
    15:00 +21°C° 0 mm 7 mps 699 mmHg 40%
    16:00 +19°C° 0.4 mm 6 mps 700 mmHg 50%
    17:00 +16°C° 0.4 mm 5 mps 700 mmHg 60%
    18:00 +13°C° 0.4 mm 4 mps 700 mmHg 70%
    19:00 +13°C° 0.4 mm 4 mps 701 mmHg 73%
    20:00 +12°C° 0.4 mm 3 mps 701 mmHg 77%
    21:00 +12°C° 0.4 mm 3 mps 702 mmHg 80%
    22:00 +11°C° 0 mm 3 mps 701 mmHg 79%
    23:00 +11°C° 0 mm 4 mps 701 mmHg 77%

    2 March, Friday

    Time Temperature Precipitation Wind Pressure Humidity
    00:00 +11°C° 0 mm 4 mps 701 mmHg 76%
    01:00 +11°C° 0 mm 4 mps 701 mmHg 77%
    02:00 +10°C° 0 mm 4 mps 701 mmHg 78%
    03:00 +9°C° 0 mm 5 mps 701 mmHg 79%
    04:00 +8°C° 0 mm 4 mps 701 mmHg 81%
    05:00 +8°C° 0 mm 4 mps 702 mmHg 83%
    06:00 +7°C° 0 mm 4 mps 702 mmHg 85%
    07:00 +10°C° 0 mm 4 mps 703 mmHg 76%
    08:00 +12°C° 0 mm 5 mps 703 mmHg 68%
    09:00 +14°C° 0 mm 5 mps 704 mmHg 59%
    10:00 +15°C° 0 mm 6 mps 705 mmHg 54%
    11:00 +16°C° 0 mm 6 mps 705 mmHg 50%
    12:00 +17°C° 0 mm 7 mps 705 mmHg 45%
    13:00 +17°C° 0 mm 6 mps 705 mmHg 45%
    14:00 +17°C° 0 mm 6 mps 705 mmHg 44%
    15:00 +17°C° 0 mm 5 mps 705 mmHg 44%
    16:00 +17°C° 0 mm 4 mps 705 mmHg 51%
    17:00 +14°C° 0 mm 3 mps 705 mmHg 57%
    18:00 +13°C° 0 mm 1 mps 705 mmHg 64%
    19:00 +13°C° 0 mm 1 mps 705 mmHg 63%
    20:00 +13°C° 0 mm 1 mps 705 mmHg 63%
    21:00 +13°C° 0 mm 2 mps 705 mmHg 62%
    22:00 +13°C° 0.1 mm 2 mps 705 mmHg 64%
    23:00 +13°C° 0.1 mm 2 mps 705 mmHg 65%
    Show more